Regional Weather Roundup
Issued by NWS

Home | Current Version | Previous Version | Text Only | Print | Product List | Glossary On
Versions: 1 2 3 4 5 6 7 8 9 10 11 12 13 14 15 16 17 18 19 20 21 22 23 24 25 26 27 28 29 30 31 32 33 34 35 36 37 38 39 40 41 42 43 44 45 46 47 48 49 50
000
ASUS43 KDTX 161301
RWRMI
MICHIGAN HOURLY REGIONAL WEATHER ROUNDUP
NATIONAL WEATHER SERVICE DETROIT/PONTIAC MI
900 AM EDT WED APR 16 2014

NOTE: "FAIR" INDICATES FEW OR NO CLOUDS BELOW 12,000 FEET WITH NO
SIGNIFICANT WEATHER AND/OR OBSTRUCTION TO VISIBILITY.

MIZ047>049-052>055-059>063-066>070-074>076-081>083-161400-
SOUTHEAST LOWER MICHIGAN

CITY           SKY/WX    TMP DP  RH WIND       PRES   REMARKS
ADRIAN         SUNNY     29  17  61 S5        30.42R WCI  24
ALMA           SUNNY     29  20  68 S3        30.40R
ANN ARBOR      SUNNY     27  23  85 CALM      30.41R
BAD AXE        CLOUDY    29  21  70 SW3       30.41R
CARO           SUNNY     29  24  79 SW3       30.41R
DETROIT CITY   SUNNY     32  14  47 S7        30.44R WCI  26
DETROIT        MOSUNNY   29  17  61 CALM      30.44R
FLINT          SUNNY     30  18  60 S6        30.42R WCI  24
GROSSE ILE     SUNNY     30  19  64 CALM      30.42R
HILLSDALE      SUNNY     29  17  59 S6        30.37R WCI  23
HOWELL         SUNNY     27  19  70 SE3       30.40R

CITY           SKY/WX    TMP DP  RH WIND       PRES   REMARKS
JACKSON        SUNNY     29  15  56 S8        30.39R WCI  21
LAMBERTVILLE   SUNNY     32  18  55 CALM      30.43R
LANSING        SUNNY     29  15  56 S5        30.40R WCI  24
LAPEER         FAIR      27  18  69 SW3       30.41R
MASON          SUNNY     28  17  62 S3        30.39R
MONROE         SUNNY     28  19  69 CALM      30.41S
MT. CLEMENS    MOSUNNY   31  16  53 SW8       30.42R WCI  24
PONTIAC        MOSUNNY   27  17  66 CALM      30.40R
PORT HOPE        N/A     31  20  63 NW5       30.39R WCI  26
PORT HURON     SUNNY     28  19  69 SW6       30.44R WCI  22
TRI CITIES     SUNNY     30  18  60 SW7       30.41R WCI  23
TROY           SUNNY     29  13  50 SW3       30.44R
SAGINAW HB     SUNNY     30  21  69 S5        30.41R WCI  25
YPSILANTI      SUNNY     31  21  66 CALM      30.43R
$$
MIZ043>046-050>051-056>058-064>065-071>073-077>080-161400-
SOUTHWEST LOWER MICHIGAN

CITY           SKY/WX    TMP DP  RH WIND       PRES   REMARKS
BATTLE CREEK   SUNNY     30  16  56 S9        30.38R WCI  22
BENTON HARBOR  CLOUDY    30  17  58 S10       30.36R WCI  21
BIG RAPIDS     SUNNY     27  18  68 S5        30.35R WCI  22
COLDWATER      SUNNY     30  16  56 S8        30.38R WCI  22
FREMONT        FAIR      29  18  63 SE6       30.35S WCI  23
HOLLAND        CLOUDY    31  18  58 SE13      30.37R WCI  21
GRAND RAPIDS   PTSUNNY   30  18  60 S8        30.38R WCI  22
IONIA          FAIR      29  19  65 S5        30.38R WCI  24
KALAMAZOO      MOSUNNY   31  15  52 S9        30.38R WCI  23
LUDINGTON      MOSUNNY   29  17  59 S8        30.35R WCI  21
MARSHALL       SUNNY     28  16  58 S6        30.38R WCI  22
MOUNT PLEASANT SUNNY     31  18  60 S5        30.38R WCI  26
MUSKEGON       CLOUDY    31  17  56 SE10      30.36R WCI  22
SOUTH HAVEN    CLOUDY    30  16  56 S8        30.36R WCI  23
$$
MIZ016>042-161400-
NORTHERN LOWER MICHIGAN

CITY           SKY/WX    TMP DP  RH WIND       PRES   REMARKS
ALPENA         SUNNY     23  16  74 S5        30.39R WCI  17
BEAVER ISLAND  SUNNY     22  21  95 SE6       30.33R WCI  15
BELLAIRE       SUNNY     27  21  80 S5        30.35R WCI  21
CADILLAC       SUNNY     26  17  68 S7        30.30R WCI  18
CHARLEVOIX     SUNNY     21  20  96 E5        30.37R WCI  15
FRANKFORT      SUNNY     29  22  76 SE3       30.33R
GAYLORD        SUNNY     22  19  89 S6        30.31R WCI  14
GRAYLING       SUNNY     21  17  84 CALM      30.33R
HARBOR SPRINGS SUNNY     20  17  86 NE3       30.34R
HOUGHTON LAKE  SUNNY     25  18  74 VRB3      30.34R
MANISTEE       SUNNY     28  16  59 S8        30.34R WCI  20
OSCODA         SUNNY     27  20  73 NW5       30.40R WCI  22
PELLSTON       SUNNY     16  14  92 CALM      30.36R
ROGERS CITY    SUNNY     23  17  79 S7        30.39R WCI  14
TRAVERSE CITY  SUNNY     28  20  71 S3        30.34R
$$
MIZ007>008-015-161400-
EASTERN UPPER MICHIGAN

CITY           SKY/WX    TMP DP  RH WIND       PRES   REMARKS
KINROSS        SUNNY     21  12  68 S5        30.34R WCI  15
MACKINAC ISLAN SUNNY     22  14  72 S8        30.34R WCI  13
NEWBERRY       SUNNY     18   9  67 S7        30.31R WCI   9
S. S. MARIE    SUNNY     17  11  77 CALM      30.34R
MUNISING         N/A     24  15  68 S7        30.30R WCI  16
$$
MIZ004>006-011>014-085-161400-
CENTRAL UPPER MICHIGAN

CITY           SKY/WX    TMP DP  RH WIND       PRES   REMARKS
MANISTIQUE     SUNNY     24  18  75 SE7       30.32R WCI  16
ESCANABA       SUNNY     21  19  93 E3        30.30R
MENOMINEE      CLOUDY    25  23  93 CALM      30.29R
SAWYER-GWINN   CLOUDY     7   3  85 CALM      30.25R
$$
MIZ001>003-009>011-084-161400-
WESTERN UPPER MICHIGAN

CITY           SKY/WX    TMP DP  RH WIND       PRES   REMARKS
IRON MOUNTAIN  CLOUDY    15  12  88 CALM      30.24R
HOUGHTON       PTSUNNY   20   7  57 S6        30.23R WCI  12
COPPER HARBOR    N/A     25   5  42 SW3       30.25R
IRONWOOD       CLOUDY    25   9  50 E6        30.15R WCI  18
$$

ABBREVIATIONS USED IN REMARKS
   TC - TEMPERATURE IN CELSIUS
  WCI - WIND CHILL INDEX
   HX - HEAT INDEX
  VSB - VISIBILITY




USA.gov is the U.S. government's official web portal to all federal, state and local government web resources and services.